| time (UTC) | temp C | wind direction | speed KPH | gust KPH | rain 1hr cm | rain 24hr cm | rain mn cm | humidity % | barometer mb |
| 20260508050940 | 12 | 191 | 0.0 | 0.0 | 0.00 | 0.00 | 0.00 | 98 | 1029.9 |
| 20260508050437 | 12 | 191 | 0.0 | 0.0 | 0.00 | 0.00 | 0.00 | 98 | 1029.9 |
| 20260508045933 | 12 | 191 | 0.0 | 0.0 | 0.00 | 0.00 | 0.00 | 98 | 1029.8 |
| 20260508045431 | 12 | 191 | 0.0 | 0.0 | 0.00 | 0.00 | 0.00 | 98 | 1029.9 |
| 20260508044928 | 12 | 191 | 0.0 | 0.0 | 0.00 | 0.00 | 0.00 | 98 | 1029.8 |
| 20260508044425 | 12 | 191 | 0.0 | 0.0 | 0.00 | 0.00 | 0.00 | 98 | 1029.8 |
| 20260508043920 | 12 | 191 | 0.0 | 0.0 | 0.00 | 0.00 | 0.00 | 98 | 1029.6 |
| 20260508043418 | 12 | 191 | 0.0 | 0.0 | 0.00 | 0.00 | 0.00 | 98 | 1029.9 |
| 20260508042914 | 12 | 191 | 0.0 | 0.0 | 0.00 | 0.00 | 0.00 | 98 | 1029.8 |
| 20260508042412 | 12 | 191 | 0.0 | 0.0 | 0.00 | 0.00 | 0.00 | 98 | 1029.8 |
| 20260508041909 | 12 | 191 | 0.0 | 1.6 | 0.00 | 0.00 | 0.00 | 98 | 1029.8 |
| 20260508041405 | 12 | 191 | 0.0 | 0.0 | 0.00 | 0.00 | 0.00 | 98 | 1029.7 |
| 20260508040902 | 12 | 191 | 0.0 | 0.0 | 0.00 | 0.00 | 0.00 | 98 | 1030.0 |
| 20260508040359 | 12 | 191 | 0.0 | 0.0 | 0.00 | 0.00 | 0.00 | 98 | 1029.9 |
| 20260508035857 | 12 | 191 | 0.0 | 0.0 | 0.00 | 2.97 | 2.97 | 98 | 1029.8 |
| 20260508035354 | 12 | 191 | 0.0 | 1.6 | 0.00 | 2.97 | 2.97 | 98 | 1029.6 |
| 20260508034850 | 12 | 191 | 0.0 | 0.0 | 0.00 | 2.97 | 2.97 | 98 | 1029.7 |
| 20260508034347 | 12 | 191 | 0.0 | 0.0 | 0.00 | 2.97 | 2.97 | 98 | 1029.6 |
| 20260508033844 | 12 | 191 | 0.0 | 0.0 | 0.00 | 2.97 | 2.97 | 98 | 1029.5 |
| 20260508033343 | 12 | 191 | 1.6 | 1.6 | 0.00 | 2.97 | 2.97 | 98 | 1029.3 |
| 20260508032839 | 12 | 191 | 0.0 | 0.0 | 0.00 | 2.97 | 2.97 | 98 | 1029.2 |
| 20260508032337 | 12 | 191 | 0.0 | 0.0 | 0.00 | 2.97 | 2.97 | 98 | 1029.3 |
| 20260508031833 | 12 | 191 | 0.0 | 0.0 | 0.00 | 2.97 | 2.97 | 98 | 1029.1 |
| 20260508031330 | 12 | 191 | 0.0 | 0.0 | 0.00 | 2.97 | 2.97 | 98 | 1029.0 |
| 20260508030827 | 12 | 191 | 1.6 | 1.6 | 0.00 | 2.97 | 2.97 | 98 | 1029.0 |
| 20260508030324 | 12 | 191 | 0.0 | 0.0 | 0.00 | 2.97 | 2.97 | 98 | 1029.3 |
| 20260508025821 | 12 | 191 | 0.0 | 0.0 | 0.00 | 2.97 | 2.97 | 98 | 1029.2 |
| 20260508025318 | 12 | 191 | 0.0 | 0.0 | 0.00 | 2.97 | 2.97 | 98 | 1028.7 |
| 20260508024815 | 12 | 191 | 0.0 | 0.0 | 0.00 | 2.97 | 2.97 | 98 | 1029.0 |
| 20260508024311 | 12 | 191 | 0.0 | 0.0 | 0.00 | 2.97 | 2.97 | 98 | 1028.9 |
| 20260508023808 | 12 | 191 | 0.0 | 0.0 | 0.00 | 2.97 | 2.97 | 98 | 1028.9 |
| 20260508023305 | 12 | 191 | 0.0 | 0.0 | 0.00 | 2.97 | 2.97 | 98 | 1028.7 |
| 20260508022801 | 12 | 191 | 0.0 | 0.0 | 0.00 | 2.97 | 2.97 | 98 | 1028.9 |
| 20260508022257 | 12 | 192 | 0.0 | 1.6 | 0.00 | 2.97 | 2.97 | 98 | 1028.8 |
| 20260508021755 | 12 | 192 | 0.0 | 0.0 | 0.00 | 2.97 | 2.97 | 98 | 1028.7 |
| 20260508021250 | 12 | 192 | 0.0 | 0.0 | 0.00 | 2.97 | 2.97 | 98 | 1028.5 |
| 20260508020747 | 12 | 191 | 0.0 | 0.0 | 0.00 | 2.97 | 2.97 | 98 | 1028.4 |
| 20260508020245 | 12 | 192 | 0.0 | 0.0 | 0.00 | 2.97 | 2.97 | 98 | 1028.5 |
| 20260508015741 | 12 | 192 | 0.0 | 0.0 | 0.00 | 2.97 | 2.97 | 98 | 1028.4 |
| 20260508015238 | 12 | 192 | 0.0 | 0.0 | 0.00 | 2.97 | 2.97 | 98 | 1028.5 |
| 20260508014735 | 12 | 191 | 0.0 | 0.0 | 0.00 | 2.97 | 2.97 | 98 | 1028.4 |
| 20260508014232 | 12 | 192 | 0.0 | 0.0 | 0.00 | 2.97 | 2.97 | 98 | 1028.6 |
| 20260508013728 | 12 | 192 | 0.0 | 0.0 | 0.00 | 2.97 | 2.97 | 98 | 1028.5 |
| 20260508013224 | 12 | 192 | 0.0 | 0.0 | 0.00 | 2.97 | 2.97 | 98 | 1028.4 |
| 20260508012722 | 12 | 192 | 0.0 | 0.0 | 0.00 | 2.97 | 2.97 | 97 | 1028.1 |
| 20260508012219 | 12 | 192 | 0.0 | 0.0 | 0.00 | 2.97 | 2.97 | 97 | 1028.1 |
| 20260508011717 | 12 | 192 | 0.0 | 0.0 | 0.00 | 2.97 | 2.97 | 97 | 1027.7 |
| 20260508011214 | 12 | 192 | 1.6 | 1.6 | 0.00 | 2.97 | 2.97 | 97 | 1027.6 |
| 20260508010711 | 12 | 191 | 0.0 | 1.6 | 0.18 | 2.97 | 2.97 | 97 | 1027.6 |
| 20260508010209 | 12 | 192 | 0.0 | 0.0 | 0.18 | 2.97 | 2.97 | 97 | 1027.7 |
| 20260508005706 | 12 | 192 | 0.0 | 0.0 | 0.00 | 2.95 | 2.95 | 97 | 1027.7 |
| 20260508005202 | 12 | 192 | 0.0 | 0.0 | 0.00 | 2.95 | 2.95 | 97 | 1027.6 |
| 20260508004658 | 12 | 192 | 0.0 | 0.0 | 0.00 | 2.95 | 2.95 | 97 | 1027.7 |
| 20260508004154 | 12 | 192 | 0.0 | 0.0 | 0.13 | 2.95 | 2.95 | 97 | 1027.7 |
| 20260508003651 | 12 | 192 | 1.6 | 1.6 | 0.30 | 2.95 | 2.95 | 96 | 1027.7 |
| 20260508003143 | 12 | 190 | 1.6 | 1.6 | 0.48 | 2.92 | 2.92 | 96 | 1027.4 |
| 20260508002639 | 12 | 189 | 0.0 | 0.0 | 0.61 | 2.87 | 2.87 | 95 | 1027.5 |
| 20260508002137 | 12 | 193 | 0.0 | 0.0 | 0.48 | 2.82 | 2.82 | 95 | 1028.0 |
| 20260508001632 | 12 | 193 | 0.0 | 0.0 | 0.30 | 2.77 | 2.77 | 94 | 1027.5 |
| 20260508001128 | 12 | 195 | 1.6 | 1.6 | 0.18 | 2.72 | 2.72 | 94 | 1027.6 |
| 20260508000624 | 12 | 201 | 1.6 | 1.6 | 0.30 | 2.72 | 2.72 | 93 | 1027.5 |
| 20260508000122 | 12 | 145 | 0.0 | 0.0 | 0.13 | 2.69 | 2.69 | 93 | 1026.9 |
| 20260507235619 | 12 | 142 | 0.0 | 0.0 | 0.00 | 2.67 | 2.67 | 93 | 1026.6 |
| 20260507235116 | 12 | 141 | 0.0 | 1.6 | 0.00 | 2.67 | 2.67 | 92 | 1026.6 |
| 20260507234612 | 13 | 141 | 0.0 | 1.6 | 0.00 | 2.67 | 2.67 | 92 | 1026.0 |
| 20260507234109 | 13 | 141 | 0.0 | 1.6 | 0.00 | 2.67 | 2.67 | 92 | 1026.3 |
| 20260507233606 | 13 | 141 | 0.0 | 0.0 | 0.00 | 2.67 | 2.67 | 92 | 1026.7 |
| 20260507233105 | 13 | 137 | 1.6 | 1.6 | 0.00 | 2.67 | 2.67 | 92 | 1026.8 |
| 20260507232600 | 13 | 183 | 0.0 | 1.6 | 0.00 | 2.67 | 2.67 | 92 | 1026.6 |
| 20260507232058 | 13 | 184 | 0.0 | 0.0 | 0.00 | 2.67 | 2.67 | 92 | 1026.7 |
| 20260507231554 | 13 | 202 | 0.0 | 3.2 | 0.00 | 2.67 | 2.67 | 92 | 1026.6 |
| 20260507231051 | 13 | 75 | 0.0 | 3.2 | 0.00 | 2.67 | 2.67 | 92 | 1026.7 |
| 20260507230548 | 13 | 142 | 0.0 | 1.6 | 0.00 | 2.67 | 2.67 | 92 | 1026.5 |
| 20260507230044 | 13 | 142 | 1.6 | 1.6 | 0.00 | 2.67 | 2.67 | 92 | 1026.5 |
| 20260507225539 | 13 | 179 | 1.6 | 1.6 | 0.00 | 2.67 | 2.67 | 92 | 1026.2 |
| 20260507225036 | 13 | 98 | 1.6 | 1.6 | 0.00 | 2.67 | 2.67 | 92 | 1026.4 |
| 20260507224532 | 13 | 114 | 1.6 | 4.8 | 0.00 | 2.67 | 2.67 | 91 | 1026.3 |
| 20260507224028 | 13 | 156 | 1.6 | 1.6 | 0.00 | 2.67 | 2.67 | 91 | 1026.6 |
| 20260507223525 | 13 | 119 | 1.6 | 4.8 | 0.00 | 2.67 | 2.67 | 91 | 1026.0 |
| 20260507223022 | 13 | 150 | 1.6 | 1.6 | 0.00 | 2.67 | 2.67 | 91 | 1026.2 |
| 20260507222519 | 13 | 172 | 1.6 | 3.2 | 0.00 | 2.67 | 2.67 | 90 | 1026.0 |
| 20260507222015 | 13 | 147 | 1.6 | 1.6 | 0.00 | 2.67 | 2.67 | 91 | 1025.8 |
| 20260507221512 | 13 | 152 | 1.6 | 1.6 | 0.00 | 2.67 | 2.67 | 91 | 1025.9 |
| 20260507221009 | 13 | 156 | 1.6 | 3.2 | 0.00 | 2.67 | 2.67 | 91 | 1025.8 |
| 20260507220506 | 13 | 125 | 1.6 | 3.2 | 0.00 | 2.67 | 2.67 | 92 | 1026.0 |
| 20260507220003 | 13 | 156 | 0.0 | 3.2 | 0.00 | 2.67 | 2.67 | 92 | 1026.2 |
| 20260507215459 | 13 | 123 | 0.0 | 3.2 | 0.00 | 2.67 | 2.67 | 92 | 1026.5 |
| 20260507214957 | 12 | 153 | 0.0 | 1.6 | 0.00 | 2.67 | 2.67 | 92 | 1026.5 |
| 20260507214454 | 12 | 136 | 1.6 | 1.6 | 0.00 | 2.67 | 2.67 | 92 | 1026.3 |
| 20260507213949 | 12 | 152 | 1.6 | 3.2 | 0.00 | 2.67 | 2.67 | 92 | 1026.3 |
| 20260507213446 | 12 | 138 | 1.6 | 1.6 | 0.00 | 2.67 | 2.67 | 92 | 1026.2 |
| 20260507212943 | 13 | 173 | 1.6 | 3.2 | 0.00 | 2.67 | 2.67 | 92 | 1026.1 |
| 20260507212439 | 13 | 161 | 1.6 | 4.8 | 0.00 | 2.67 | 2.67 | 93 | 1026.3 |
| 20260507211936 | 13 | 177 | 0.0 | 3.2 | 0.00 | 2.67 | 2.67 | 93 | 1026.1 |
| 20260507211433 | 13 | 162 | 3.2 | 3.2 | 0.00 | 2.67 | 2.67 | 93 | 1025.9 |
| 20260507210929 | 13 | 139 | 1.6 | 1.6 | 0.00 | 2.67 | 2.67 | 94 | 1025.9 |
| 20260507210426 | 13 | 83 | 1.6 | 1.6 | 0.00 | 2.67 | 2.67 | 94 | 1025.9 |
| 20260507205923 | 13 | 162 | 1.6 | 1.6 | 0.00 | 2.67 | 2.67 | 94 | 1026.1 |
| 20260507205420 | 13 | 153 | 0.0 | 1.6 | 0.00 | 2.67 | 2.67 | 93 | 1025.6 |
| 20260507204916 | 13 | 67 | 1.6 | 4.8 | 0.00 | 2.67 | 2.67 | 94 | 1025.6 |
| 20260507204413 | 14 | 147 | 1.6 | 4.8 | 0.00 | 2.67 | 2.67 | 93 | 1025.6 |
| 20260507203910 | 14 | 74 | 4.8 | 9.7 | 0.00 | 2.67 | 2.67 | 94 | 1025.3 |
| 20260507203408 | 14 | 188 | 1.6 | 4.8 | 0.00 | 2.67 | 2.67 | 94 | 1025.5 |
| 20260507202904 | 14 | 179 | 0.0 | 3.2 | 0.00 | 2.67 | 2.67 | 94 | 1025.2 |
| 20260507202401 | 15 | 152 | 1.6 | 1.6 | 0.00 | 2.67 | 2.67 | 94 | 1025.2 |
| 20260507201856 | 15 | 152 | 1.6 | 3.2 | 0.00 | 2.67 | 2.67 | 94 | 1025.5 |
| 20260507201352 | 15 | 92 | 0.0 | 3.2 | 0.00 | 2.67 | 2.67 | 94 | 1025.5 |
| 20260507200849 | 14 | 175 | 1.6 | 1.6 | 0.00 | 2.67 | 2.67 | 94 | 1025.3 |
| 20260507200345 | 14 | 140 | 1.6 | 4.8 | 0.00 | 2.67 | 2.67 | 94 | 1025.5 |
| 20260507195841 | 15 | 90 | 0.0 | 3.2 | 0.00 | 2.67 | 2.67 | 95 | 1025.3 |
| 20260507195338 | 15 | 186 | 1.6 | 4.8 | 0.00 | 2.67 | 2.67 | 95 | 1025.5 |
| 20260507194836 | 15 | 176 | 1.6 | 3.2 | 0.00 | 2.67 | 2.67 | 95 | 1025.3 |
| 20260507194332 | 15 | 160 | 3.2 | 4.8 | 0.18 | 2.67 | 2.67 | 95 | 1025.4 |
| 20260507193828 | 15 | 43 | 3.2 | 8.0 | 0.18 | 2.67 | 2.67 | 95 | 1025.2 |
| 20260507193326 | 15 | 194 | 0.0 | 3.2 | 0.00 | 2.64 | 2.64 | 95 | 1025.2 |
| 20260507192821 | 15 | 166 | 0.0 | 1.6 | 0.00 | 2.64 | 2.64 | 96 | 1025.2 |
| 20260507192318 | 15 | 34 | 3.2 | 3.2 | 0.00 | 2.64 | 2.64 | 95 | 1025.1 |
| 20260507191814 | 15 | 173 | 3.2 | 3.2 | 0.00 | 2.64 | 2.64 | 95 | 1025.2 |
| 20260507191311 | 15 | 224 | 3.2 | 8.0 | 0.00 | 2.64 | 2.64 | 95 | 1025.7 |
| 20260507190808 | 15 | 180 | 1.6 | 3.2 | 0.00 | 2.64 | 2.64 | 95 | 1025.4 |
| 20260507190307 | 15 | 210 | 1.6 | 3.2 | 0.00 | 2.64 | 2.64 | 95 | 1025.5 |
| 20260507185805 | 15 | 173 | 0.0 | 3.2 | 0.00 | 2.64 | 2.64 | 95 | 1025.3 |
| 20260507185301 | 15 | 178 | 3.2 | 4.8 | 0.18 | 2.64 | 2.64 | 95 | 1024.8 |
| 20260507184759 | 15 | 55 | 1.6 | 1.6 | 0.18 | 2.64 | 2.64 | 94 | 1024.2 |
| 20260507184257 | 16 | 152 | 1.6 | 4.8 | 0.30 | 2.62 | 2.62 | 94 | 1025.0 |
| 20260507183753 | 16 | 194 | 1.6 | 3.2 | 0.18 | 2.59 | 2.59 | 94 | 1025.0 |
| 20260507183250 | 16 | 13 | 1.6 | 8.0 | 0.00 | 2.57 | 2.57 | 92 | 1025.1 |
| 20260507182748 | 17 | 121 | 0.0 | 9.7 | 0.00 | 2.57 | 2.57 | 92 | 1025.0 |
| 20260507182242 | 17 | 46 | 4.8 | 8.0 | 0.00 | 2.57 | 2.57 | 93 | 1025.0 |
| 20260507181739 | 18 | 35 | 4.8 | 9.7 | 0.00 | 2.57 | 2.57 | 92 | 1024.0 |
| 20260507181236 | 19 | 220 | 1.6 | 4.8 | 0.00 | 2.57 | 2.57 | 91 | 1024.3 |
| 20260507180732 | 20 | 67 | 3.2 | 8.0 | 0.00 | 2.57 | 2.57 | 88 | 1024.5 |
| 20260507180230 | 21 | 30 | 4.8 | 8.0 | 0.00 | 2.57 | 2.57 | 93 | 1024.5 |
| 20260507175725 | 21 | 225 | 1.6 | 3.2 | 0.00 | 2.57 | 2.57 | 92 | 1024.2 |
| 20260507175222 | 21 | 241 | 1.6 | 3.2 | 0.00 | 2.57 | 2.57 | 92 | 1024.5 |
| 20260507174720 | 21 | 224 | 3.2 | 4.8 | 0.00 | 2.57 | 2.57 | 93 | 1024.8 |
| 20260507174217 | 21 | 217 | 3.2 | 3.2 | 0.00 | 2.57 | 2.57 | 94 | 1024.6 |
| 20260507173715 | 21 | 217 | 0.0 | 1.6 | 0.00 | 2.57 | 2.57 | 93 | 1024.6 |
| 20260507173211 | 21 | 223 | 3.2 | 4.8 | 0.00 | 2.57 | 2.57 | 93 | 1024.5 |
| 20260507172708 | 21 | 197 | 1.6 | 1.6 | 0.00 | 2.57 | 2.57 | 94 | 1024.2 |
| 20260507172205 | 21 | 225 | 3.2 | 3.2 | 0.00 | 2.57 | 2.57 | 94 | 1024.4 |
| 20260507171705 | 21 | 230 | 1.6 | 4.8 | 0.00 | 2.57 | 2.57 | 93 | 1024.0 |
| 20260507171203 | 21 | 223 | 1.6 | 4.8 | 0.00 | 2.57 | 2.57 | 93 | 1024.0 |
| 20260507170659 | 21 | 196 | 1.6 | 1.6 | 0.00 | 2.57 | 2.57 | 94 | 1023.9 |
| 20260507170156 | 21 | 201 | 1.6 | 1.6 | 0.13 | 2.57 | 2.57 | 95 | 1024.1 |
| 20260507165652 | 21 | 203 | 3.2 | 3.2 | 0.13 | 2.57 | 2.57 | 95 | 1024.2 |
| 20260507165148 | 20 | 207 | 0.0 | 1.6 | 0.00 | 2.54 | 2.54 | 95 | 1024.2 |
| 20260507164644 | 20 | 202 | 0.0 | 0.0 | 0.00 | 2.54 | 2.54 | 95 | 1024.6 |
| 20260507164142 | 20 | 201 | 1.6 | 1.6 | 0.00 | 2.54 | 2.54 | 94 | 1024.7 |
| 20260507163638 | 20 | 202 | 0.0 | 1.6 | 0.00 | 2.54 | 2.54 | 94 | 1024.8 |
| 20260507163137 | 21 | 240 | 3.2 | 4.8 | 0.00 | 2.54 | 2.54 | 93 | 1025.3 |
| 20260507162632 | 21 | 225 | 1.6 | 3.2 | 0.00 | 2.54 | 2.54 | 94 | 1025.2 |
| 20260507162129 | 20 | 226 | 0.0 | 8.0 | 0.00 | 2.54 | 2.54 | 95 | 1025.6 |
| 20260507161625 | 20 | 225 | 0.0 | 8.0 | 0.00 | 2.54 | 2.54 | 95 | 1025.8 |
| 20260507161122 | 20 | 222 | 6.4 | 8.0 | 0.00 | 2.54 | 2.54 | 94 | 1025.7 |
| 20260507160618 | 20 | 235 | 3.2 | 4.8 | 0.00 | 2.54 | 2.54 | 95 | 1025.7 |
| 20260507160114 | 20 | 182 | 3.2 | 4.8 | 0.00 | 2.54 | 2.54 | 95 | 1025.9 |
| 20260507155609 | 20 | 217 | 1.6 | 3.2 | 0.00 | 2.54 | 2.54 | 95 | 1026.0 |
| 20260507155107 | 20 | 237 | 3.2 | 3.2 | 0.00 | 2.54 | 2.54 | 96 | 1025.9 |
| 20260507154604 | 20 | 253 | 0.0 | 1.6 | 0.00 | 2.54 | 2.54 | 96 | 1025.8 |
| 20260507154101 | 20 | 211 | 0.0 | 1.6 | 0.00 | 2.54 | 2.54 | 96 | 1025.5 |
| 20260507153557 | 20 | 211 | 0.0 | 1.6 | 0.00 | 2.54 | 2.54 | 96 | 1025.1 |
| 20260507153054 | 20 | 250 | 1.6 | 1.6 | 0.00 | 2.54 | 2.54 | 96 | 1025.2 |
| 20260507152550 | 20 | 210 | 0.0 | 1.6 | 0.00 | 2.54 | 2.54 | 97 | 1025.6 |
| 20260507152046 | 20 | 226 | 3.2 | 4.8 | 0.18 | 2.54 | 2.54 | 97 | 1025.5 |
| 20260507151542 | 20 | 239 | 0.0 | 3.2 | 0.18 | 2.54 | 2.54 | 97 | 1025.3 |
| 20260507151039 | 20 | 188 | 1.6 | 3.2 | 0.00 | 2.51 | 2.51 | 97 | 1025.3 |
| 20260507150537 | 20 | 197 | 0.0 | 0.0 | 0.13 | 2.51 | 2.51 | 97 | 1025.5 |
| 20260507150033 | 19 | 233 | 3.2 | 3.2 | 0.13 | 2.51 | 2.51 | 97 | 1025.6 |
| 20260507145528 | 19 | 214 | 4.8 | 4.8 | 0.30 | 2.49 | 2.49 | 97 | 1025.8 |
| 20260507145026 | 19 | 225 | 3.2 | 4.8 | 0.30 | 2.46 | 2.46 | 97 | 1026.1 |
| 20260507144522 | 19 | 260 | 4.8 | 4.8 | 0.66 | 2.44 | 2.44 | 97 | 1026.2 |
| 20260507144020 | 19 | 252 | 3.2 | 11.3 | 0.66 | 2.39 | 2.39 | 97 | 1025.9 |
| 20260507143517 | 19 | 280 | 3.2 | 8.0 | 0.43 | 2.34 | 2.34 | 97 | 1026.1 |
| 20260507143015 | 19 | 293 | 3.2 | 3.2 | 0.71 | 2.29 | 2.29 | 97 | 1026.0 |
| 20260507142509 | 19 | 349 | 1.6 | 4.8 | 1.68 | 2.24 | 2.24 | 97 | 1025.9 |
| 20260507142007 | 20 | 188 | 4.8 | 8.0 | 1.80 | 2.13 | 2.13 | 97 | 1026.0 |
| 20260507141503 | 20 | 202 | 1.6 | 3.2 | 1.68 | 1.96 | 1.96 | 97 | 1026.2 |
| 20260507140959 | 20 | 202 | 0.0 | 0.0 | 1.80 | 1.80 | 1.80 | 97 | 1026.1 |
| 20260507140456 | 20 | 319 | 3.2 | 3.2 | 1.50 | 1.65 | 1.65 | 97 | 1026.5 |
| 20260507135954 | 20 | 237 | 1.6 | 4.8 | 0.61 | 1.47 | 1.47 | 97 | 1026.3 |
| 20260507135450 | 20 | 239 | 1.6 | 1.6 | 0.36 | 1.40 | 1.40 | 97 | 1026.4 |
| 20260507134948 | 20 | 240 | 0.0 | 1.6 | 0.18 | 1.37 | 1.37 | 97 | 1026.3 |
| 20260507134444 | 20 | 243 | 0.0 | 0.0 | 0.00 | 1.35 | 1.35 | 97 | 1026.2 |
| 20260507133940 | 20 | 240 | 0.0 | 1.6 | 0.00 | 1.35 | 1.35 | 97 | 1026.2 |
| 20260507133436 | 20 | 239 | 0.0 | 1.6 | 0.00 | 1.35 | 1.35 | 97 | 1026.3 |
| 20260507132935 | 20 | 240 | 0.0 | 1.6 | 0.00 | 1.35 | 1.35 | 97 | 1026.4 |
| 20260507132431 | 20 | 241 | 0.0 | 1.6 | 0.00 | 1.35 | 1.35 | 97 | 1026.3 |
| 20260507131927 | 20 | 254 | 0.0 | 1.6 | 0.00 | 1.35 | 1.35 | 97 | 1026.3 |
| 20260507131425 | 20 | 229 | 1.6 | 3.2 | 0.00 | 1.35 | 1.35 | 97 | 1026.4 |
| 20260507130922 | 20 | 228 | 1.6 | 3.2 | 0.00 | 1.35 | 1.35 | 97 | 1026.3 |
| 20260507130419 | 20 | 228 | 1.6 | 1.6 | 0.13 | 1.35 | 1.35 | 97 | 1026.0 |
| 20260507125917 | 19 | 230 | 0.0 | 1.6 | 0.13 | 1.35 | 1.35 | 97 | 1026.2 |
| 20260507125415 | 19 | 228 | 0.0 | 3.2 | 0.00 | 1.32 | 1.32 | 97 | 1026.0 |
| 20260507124912 | 19 | 210 | 3.2 | 8.0 | 0.00 | 1.32 | 1.32 | 97 | 1026.3 |
| 20260507124408 | 19 | 245 | 3.2 | 3.2 | 0.00 | 1.32 | 1.32 | 97 | 1026.1 |
| 20260507123907 | 19 | 227 | 1.6 | 3.2 | 0.00 | 1.32 | 1.32 | 98 | 1026.2 |
| 20260507123403 | 19 | 138 | 0.0 | 3.2 | 0.00 | 1.32 | 1.32 | 98 | 1026.2 |
| 20260507122900 | 19 | 218 | 0.0 | 0.0 | 0.00 | 1.32 | 1.32 | 98 | 1026.2 |
| 20260507122355 | 19 | 218 | 0.0 | 1.6 | 0.00 | 1.32 | 1.32 | 98 | 1026.2 |
| 20260507121852 | 19 | 218 | 0.0 | 1.6 | 0.00 | 1.32 | 1.32 | 98 | 1026.3 |
| 20260507121347 | 19 | 211 | 1.6 | 1.6 | 0.00 | 1.32 | 1.32 | 98 | 1026.7 |
| 20260507120844 | 19 | 210 | 0.0 | 0.0 | 0.00 | 1.32 | 1.32 | 98 | 1026.2 |
| 20260507120340 | 19 | 201 | 0.0 | 1.6 | 0.00 | 1.32 | 1.32 | 98 | 1026.4 |
| 20260507115837 | 19 | 216 | 1.6 | 1.6 | 0.00 | 1.32 | 1.32 | 98 | 1026.6 |
| 20260507115332 | 18 | 216 | 0.0 | 0.0 | 0.00 | 1.32 | 1.32 | 98 | 1026.5 |
| 20260507114828 | 18 | 216 | 0.0 | 1.6 | 0.00 | 1.32 | 1.32 | 98 | 1026.5 |
| 20260507114325 | 18 | 218 | 0.0 | 1.6 | 0.00 | 1.32 | 1.32 | 98 | 1026.7 |
| 20260507113823 | 18 | 218 | 0.0 | 1.6 | 0.00 | 1.32 | 1.32 | 98 | 1026.8 |
| 20260507113320 | 18 | 228 | 0.0 | 1.6 | 0.00 | 1.32 | 1.32 | 98 | 1026.9 |
| 20260507112818 | 18 | 228 | 0.0 | 0.0 | 0.00 | 1.32 | 1.32 | 98 | 1026.8 |
| 20260507112314 | 18 | 228 | 0.0 | 0.0 | 0.00 | 1.32 | 1.32 | 98 | 1026.8 |
| 20260507111812 | 18 | 229 | 1.6 | 3.2 | 0.00 | 1.32 | 1.32 | 98 | 1026.8 |
| 20260507111308 | 18 | 217 | 1.6 | 3.2 | 0.00 | 1.32 | 1.32 | 98 | 1026.8 |
| 20260507110804 | 18 | 224 | 1.6 | 3.2 | 0.00 | 1.32 | 1.32 | 98 | 1026.9 |
| 20260507110301 | 18 | 205 | 3.2 | 3.2 | 0.00 | 1.32 | 1.32 | 98 | 1026.7 |
| 20260507105758 | 18 | 201 | 1.6 | 3.2 | 0.00 | 1.32 | 1.32 | 98 | 1026.7 |
| 20260507105254 | 18 | 201 | 3.2 | 1.6 | 0.00 | 1.32 | 1.32 | 98 | 1026.6 |
| 20260507104752 | 18 | 221 | 1.6 | 3.2 | 0.00 | 1.32 | 1.32 | 98 | 1026.5 |
| 20260507104248 | 18 | 214 | 1.6 | 8.0 | 0.00 | 1.32 | 1.32 | 98 | 1026.6 |
| 20260507103744 | 18 | 209 | 0.0 | 1.6 | 0.18 | 1.32 | 1.32 | 98 | 1026.6 |
| 20260507103240 | 18 | 208 | 0.0 | 1.6 | 0.18 | 1.32 | 1.32 | 98 | 1026.7 |
| 20260507102737 | 18 | 217 | 1.6 | 3.2 | 0.00 | 1.30 | 1.30 | 98 | 1026.7 |
| 20260507102234 | 18 | 205 | 1.6 | 1.6 | 0.00 | 1.30 | 1.30 | 98 | 1026.6 |
| 20260507101730 | 18 | 218 | 1.6 | 3.2 | 0.13 | 1.30 | 1.30 | 98 | 1026.3 |
| 20260507101225 | 18 | 221 | 0.0 | 3.2 | 0.13 | 1.30 | 1.30 | 98 | 1026.7 |
| 20260507100722 | 18 | 221 | 3.2 | 3.2 | 0.00 | 1.27 | 1.27 | 98 | 1026.6 |
| 20260507100221 | 18 | 246 | 1.6 | 1.6 | 0.00 | 1.27 | 1.27 | 98 | 1026.7 |
| 20260507095718 | 18 | 214 | 0.0 | 1.6 | 0.00 | 1.27 | 1.27 | 98 | 1026.5 |
| 20260507095215 | 18 | 219 | 3.2 | 3.2 | 0.00 | 1.27 | 1.27 | 98 | 1026.4 |
| 20260507094711 | 18 | 225 | 1.6 | 3.2 | 0.00 | 1.27 | 1.27 | 98 | 1026.4 |
| 20260507094209 | 18 | 222 | 1.6 | 3.2 | 0.00 | 1.27 | 1.27 | 98 | 1026.5 |
| 20260507093705 | 18 | 240 | 4.8 | 4.8 | 0.00 | 1.27 | 1.27 | 98 | 1026.4 |
| 20260507093204 | 18 | 203 | 1.6 | 8.0 | 0.18 | 1.27 | 1.27 | 98 | 1026.5 |
| 20260507092701 | 18 | 251 | 8.0 | 9.7 | 0.00 | 1.24 | 1.24 | 98 | 1026.3 |
| 20260507092157 | 18 | 231 | 1.6 | 3.2 | 0.00 | 1.24 | 1.24 | 98 | 1026.4 |
| 20260507091654 | 18 | 176 | 0.0 | 3.2 | 0.00 | 1.24 | 1.24 | 98 | 1026.3 |
| 20260507091150 | 18 | 208 | 6.4 | 8.0 | 0.00 | 1.24 | 1.24 | 98 | 1026.5 |
| 20260507090645 | 18 | 224 | 1.6 | 1.6 | 0.13 | 1.24 | 1.24 | 98 | 1026.5 |
| 20260507090143 | 18 | 228 | 4.8 | 4.8 | 0.13 | 1.24 | 1.24 | 98 | 1026.8 |
| 20260507085640 | 18 | 141 | 0.0 | 1.6 | 0.00 | 1.22 | 1.22 | 98 | 1026.3 |
| 20260507085136 | 18 | 110 | 0.0 | 0.0 | 0.00 | 1.22 | 1.22 | 98 | 1026.5 |
| 20260507084633 | 18 | 109 | 0.0 | 1.6 | 0.18 | 1.22 | 1.22 | 98 | 1026.7 |
| 20260507084130 | 18 | 101 | 0.0 | 0.0 | 0.30 | 1.22 | 1.22 | 98 | 1027.0 |
| 20260507083627 | 18 | 97 | 1.6 | 1.6 | 0.61 | 1.19 | 1.19 | 98 | 1027.2 |
| 20260507083124 | 18 | 163 | 0.0 | 0.0 | 0.61 | 1.14 | 1.14 | 98 | 1026.7 |
| 20260507082619 | 18 | 165 | 0.0 | 1.6 | 0.48 | 1.09 | 1.09 | 98 | 1027.3 |
| 20260507082116 | 18 | 163 | 0.0 | 0.0 | 0.30 | 1.04 | 1.04 | 98 | 1027.3 |
| 20260507081613 | 18 | 164 | 0.0 | 0.0 | 0.13 | 1.02 | 1.02 | 98 | 1027.3 |
| 20260507081109 | 18 | 164 | 0.0 | 1.6 | 0.00 | 0.99 | 0.99 | 97 | 1027.5 |
| 20260507080606 | 18 | 161 | 0.0 | 0.0 | 0.18 | 0.99 | 0.99 | 97 | 1027.0 |
| 20260507075557 | 18 | 156 | 0.0 | 1.6 | 0.30 | 0.97 | 0.97 | 97 | 1027.2 |
| 20260507075054 | 18 | 160 | 1.6 | 3.2 | 0.18 | 0.94 | 0.94 | 97 | 1025.9 |
| 20260507074551 | 18 | 201 | 0.0 | 1.6 | 0.13 | 0.91 | 0.91 | 97 | 1026.9 |
| 20260507074049 | 18 | 216 | 0.0 | 0.0 | 0.30 | 0.91 | 0.91 | 97 | 1027.3 |
| 20260507073544 | 18 | 220 | 0.0 | 0.0 | 0.00 | 0.86 | 0.86 | 97 | 1027.4 |
| 20260507073041 | 18 | 220 | 0.0 | 0.0 | 0.13 | 0.86 | 0.86 | 97 | 1027.4 |
| 20260507072539 | 18 | 221 | 1.6 | 1.6 | 0.13 | 0.86 | 0.86 | 97 | 1027.7 |
| 20260507072036 | 18 | 220 | 0.0 | 1.6 | 0.18 | 0.84 | 0.84 | 97 | 1027.4 |
| 20260507071533 | 18 | 219 | 1.6 | 1.6 | 0.18 | 0.84 | 0.84 | 97 | 1027.5 |
| 20260507071030 | 18 | 219 | 0.0 | 0.0 | 0.13 | 0.81 | 0.81 | 97 | 1027.5 |
| 20260507070527 | 18 | 219 | 1.6 | 1.6 | 0.13 | 0.81 | 0.81 | 97 | 1027.6 |
| 20260507070024 | 18 | 219 | 0.0 | 0.0 | 0.00 | 0.79 | 0.79 | 97 | 1027.8 |
| 20260507065520 | 18 | 219 | 0.0 | 0.0 | 0.00 | 0.79 | 0.79 | 97 | 1028.1 |
| 20260507065018 | 18 | 219 | 0.0 | 0.0 | 0.00 | 0.79 | 0.79 | 97 | 1027.9 |
| 20260507064515 | 18 | 219 | 0.0 | 0.0 | 0.00 | 0.79 | 0.79 | 97 | 1027.9 |
| 20260507064014 | 18 | 219 | 0.0 | 0.0 | 0.00 | 0.79 | 0.79 | 97 | 1027.6 |
| 20260507063510 | 18 | 219 | 0.0 | 0.0 | 0.00 | 0.79 | 0.79 | 96 | 1028.0 |
| 20260507063008 | 18 | 219 | 0.0 | 0.0 | 0.00 | 0.79 | 0.79 | 96 | 1028.1 |
| 20260507062504 | 18 | 219 | 0.0 | 0.0 | 0.00 | 0.79 | 0.79 | 96 | 1028.3 |
| 20260507062002 | 18 | 219 | 0.0 | 1.6 | 0.00 | 0.79 | 0.79 | 96 | 1028.3 |
| 20260507061459 | 18 | 219 | 1.6 | 1.6 | 0.00 | 0.79 | 0.79 | 96 | 1028.2 |
| 20260507060958 | 18 | 219 | 0.0 | 0.0 | 0.00 | 0.79 | 0.79 | 96 | 1028.6 |
| 20260507060454 | 18 | 219 | 0.0 | 0.0 | 0.00 | 0.79 | 0.79 | 96 | 1028.7 |
| 20260507055951 | 18 | 219 | 0.0 | 0.0 | 0.00 | 0.79 | 0.79 | 96 | 1028.6 |
| 20260507055446 | 18 | 219 | 0.0 | 0.0 | 0.00 | 0.79 | 0.79 | 96 | 1028.5 |
| 20260507054943 | 18 | 219 | 0.0 | 0.0 | 0.00 | 0.79 | 0.79 | 96 | 1028.4 |
| 20260507054439 | 18 | 219 | 0.0 | 0.0 | 0.00 | 0.79 | 0.79 | 96 | 1028.3 |
| 20260507053936 | 18 | 219 | 0.0 | 0.0 | 0.00 | 0.79 | 0.79 | 95 | 1028.4 |
| 20260507053434 | 18 | 219 | 0.0 | 0.0 | 0.00 | 0.79 | 0.79 | 95 | 1028.1 |
| 20260507052932 | 18 | 219 | 0.0 | 0.0 | 0.00 | 0.79 | 0.79 | 95 | 1027.6 |
| 20260507052430 | 18 | 219 | 0.0 | 0.0 | 0.00 | 0.79 | 0.79 | 95 | 1027.5 |
| 20260507051927 | 18 | 219 | 0.0 | 0.0 | 0.00 | 0.79 | 0.79 | 95 | 1027.9 |
| 20260507051424 | 18 | 219 | 0.0 | 1.6 | 0.00 | 0.79 | 0.79 | 95 | 1028.0 |